User: anonymous   Login
Location: Deer Path Park
(40.5570°N, 74.8450°W)
Time: 22:05:41
(UTC-04:00)
Language:

Iridium 49 - Orbit

View from above orbital plane
View from above orbital plane
View from above satellite
View from above satellite

Ground track
Ground track

The orbit data is extracted from the following two-line orbital elements,

1 25108U 97082E   16148.30530932  .00000221  00000-0  71739-4 0  9993
2 25108  86.3982  56.7445 0002176  86.5849  28.4993 14.34218396965063
Epoch (UTC): 27 May 2016 07:19:38
Eccentricity: 0.0002176
inclination: 86.3982°
perigee height: 776 km
apogee height: 779 km
right ascension of ascending node: 56.7445°
argument of perigee: 86.5849°
revolutions per day: 14.34218396
mean anomaly at epoch: 28.4993°
orbit number at epoch: 96506

The dashed part of the orbit path shows where the satellite is in the earth's shadow,  

DLR